Wind_Speed
2 2 3 3 4 4 4 4 4 4 5 5 5 5 6 6 6 6 6 5 5 5 5 4 4 4 3 3 3 4 4 5 5 5 5 5 6 6 6 6 5 5 5 5 6 6 6 7 7
2 3 4 4 4 5 5 5 5 5 6 5 5 5 6 6 6 5 5 5 5 5 5 4 4 4 4 4 4 4 4 4 5 6 6 6 6 7 7 7 7 6 6 6 7 7 7 7 8
3 3 4 5 5 5 5 5 5 5 6 6 6 6 6 6 6 6 6 5 5 6 5 5 5 5 5 4 4 4 5 5 5 6 7 6 7 7 8 8 8 8 7 7 7 7 8 8 9
4 4 4 5 5 6 6 5 5 6 6 6 7 6 7 7 7 6 6 6 6 6 6 6 6 5 5 5 5 5 5 6 6 6 6 7 7 7 8 8 9 9 9 8 8 8 8 9 9
4 4 4 5 5 5 5 5 6 6 5 6 6 6 7 6 6 6 7 7 6 6 6 6 6 6 6 6 6 6 6 7 7 7 7 7 7 7 7 8 8 9 9 9 10 10 10 10 9
3 4 4 4 4 5 5 5 5 6 6 6 6 6 6 6 7 7 7 7 7 7 7 7 7 7 7 7 8 8 8 8 8 8 8 8 8 8 8 8 9 9 9 10 10 11 11 10 11
3 3 4 4 4 5 5 5 5 5 5 5 5 6 6 6 7 7 7 7 7 7 7 8 8 8 8 8 8 8 9 9 9 9 9 9 9 9 9 9 10 10 11 11 11 11 11 11 12
4 4 3 4 4 5 5 5 5 4 5 5 5 5 6 6 7 7 7 7 7 8 8 8 8 8 8 8 8 9 9 9 9 9 10 10 10 10 10 10 11 11 11 11 12 12 12 12 13
4 3 4 4 5 5 5 5 4 4 5 5 5 5 6 6 7 7 7 7 7 7 7 7 7 7 7 7 8 8 8 9 9 10 10 10 10 11 11 11 11 11 12 12 12 12 12 12 13
4 4 4 4 5 5 5 5 5 5 5 5 5 5 6 6 6 6 6 6 6 7 7 7 7 7 7 7 8 8 9 9 10 10 10 10 10 11 12 12 12 12 12 12 12 13 13 13 13
5 5 5 5 5 5 5 5 5 6 5 5 5 5 5 5 5 6 6 6 6 7 7 7 8 8 8 8 8 9 9 9 10 11 11 11 11 11 12 12 13 13 13 13 13 13 14 14 13
6 6 6 5 5 6 5 5 6 6 6 6 6 6 6 5 5 5 6 6 7 7 8 8 8 9 9 9 9 10 10 10 11 11 11 11 11 12 13 13 13 14 14 14 14 14 14 14 15
6 6 6 6 6 6 6 6 6 6 6 6 6 6 6 6 5 6 6 6 7 7 8 8 8 9 9 9 10 10 11 11 11 12 12 12 12 13 14 15 15 15 15 15 15 15 16 16 16
6 6 7 7 7 7 7 7 6 7 7 7 7 6 6 6 5 5 6 6 7 7 8 8 9 9 10 10 10 11 11 12 12 13 13 14 14 14 14 15 16 16 16 16 17 16 16 16 16
7 7 7 7 7 7 7 7 7 8 8 7 7 7 7 7 7 6 7 7 8 8 9 9 9 10 10 10 11 11 11 12 13 13 14 14 14 14 15 15 15 16 16 17 17 17 17 17 17
7 7 7 7 8 8 9 8 8 8 8 8 8 8 8 8 8 8 8 8 8 8 9 9 9 10 10 11 11 11 12 12 13 13 14 14 14 14 14 15 15 16 16 17 17 17 18 17 17
7 7 7 8 8 8 9 10 10 10 9 9 9 9 9 9 9 9 9 9 9 9 9 9 10 10 11 11 11 12 12 12 13 13 14 14 15 15 15 15 15 16 16 17 17 18 18 18 18
8 8 8 9 9 9 8 9 11 11 11 11 11 11 10 10 10 9 9 9 9 9 9 10 10 10 11 11 11 12 12 13 13 13 14 14 14 15 15 15 16 16 16 17 17 18 18 18 18
10 9 10 9 9 9 9 10 10 11 12 12 12 12 11 11 11 10 10 9 9 9 9 10 10 11 11 11 12 12 12 12 13 13 13 13 14 14 15 16 16 16 17 17 18 18 18 18 18
10 10 10 10 10 10 10 11 11 11 12 12 13 12 12 12 11 11 10 10 9 9 10 10 10 10 11 11 12 12 12 13 13 13 13 13 14 14 14 14 15 16 16 17 18 18 19 19 18
10 11 11 11 11 11 11 11 12 12 13 13 13 13 12 12 11 10 10 10 10 9 10 10 10 11 11 11 12 12 13 13 13 13 12 13 13 14 14 14 15 15 16 16 17 18 19 19 19
10 11 12 12 11 11 11 11 12 12 13 13 13 13 13 12 11 11 11 11 11 11 11 11 11 11 11 11 12 12 12 13 13 13 13 13 13 14 14 14 14 14 15 16 16 17 18 18 19
11 12 12 12 12 12 12 12 11 12 13 13 13 14 13 13 12 12 12 12 12 12 12 12 12 12 12 12 13 13 13 13 14 13 13 14 14 14 14 14 14 14 15 15 15 16 16 17 18
11 11 12 13 13 13 12 13 11 12 13 13 13 14 14 13 13 13 13 13 13 14 13 13 13 13 13 13 14 14 14 14 14 14 14 14 14 14 14 14 14 15 15 15 16 16 16 16 17
12 11 12 12 13 12 12 12 11 11 11 12 13 13 13 14 14 14 14 14 14 14 14 14 14 14 14 14 14 15 15 15 15 15 14 14 15 15 15 15 15 15 15 16 16 16 17 17 18
12 12 12 13 13 13 13 12 11 11 12 12 13 14 14 15 16 16 15 15 15 15 15 15 15 15 15 15 15 15 16 15 15 15 15 15 15 15 16 16 16 16 16 16 16 16 17 18 18
13 14 14 14 15 15 14 13 12 13 13 13 14 15 15 16 16 17 17 16 16 15 16 16 16 16 16 16 17 17 17 16 16 16 16 16 16 16 16 16 17 16 17 17 17 17 18 18 18
15 15 15 16 16 16 15 14 13 14 14 14 15 15 16 16 16 16 16 17 17 17 16 17 17 17 17 17 18 18 18 17 17 17 17 18 18 18 18 18 18 18 18 18 18 18 18 18 18
16 16 17 17 18 18 17 16 15 14 15 15 16 16 16 16 16 16 17 17 18 18 18 18 18 18 18 18 18 18 18 17 18 18 19 19 19 19 20 20 20 20 20 19 19 19 19 19 19
17 17 18 18 18 19 19 17 16 15 15 15 16 16 17 17 17 17 16 16 17 18 19 19 19 19 19 19 19 19 18 18 19 19 19 20 21 21 21 21 21 21 21 21 21 21 20 20 20
Wind_Direction
238 234 239 234 229 236 239 234 222 213 208 203 201 202 200 198 200 203 202 206 211 208 204 202 202 204 207 217 227 227 226 219 215 217 218 219 222 225 227 230 233 236 237 235 236 239 242 233 230
251 245 246 243 240 246 244 237 227 222 221 217 215 212 209 209 209 211 209 213 218 216 213 208 209 215 218 225 228 226 225 226 229 229 227 228 231 233 235 236 238 239 242 241 243 247 239 236 235
264 257 253 254 251 245 243 237 232 230 225 224 224 222 220 220 224 223 224 226 223 221 223 226 225 227 228 228 230 232 232 231 237 237 234 236 242 244 244 242 242 243 243 245 248 247 235 236 236
266 264 264 265 255 244 241 234 228 232 230 230 228 226 221 224 227 227 226 226 225 227 231 233 234 236 236 239 241 246 245 242 242 243 238 242 249 250 249 247 244 245 244 246 249 247 245 239 240
263 265 266 264 256 243 235 232 236 239 235 233 232 230 225 225 226 225 226 228 233 232 233 236 238 239 243 247 247 252 257 257 254 253 249 247 249 249 247 245 244 245 247 248 249 249 248 245 245
259 257 257 256 249 240 234 234 239 241 240 236 234 232 230 226 226 229 232 231 231 231 233 235 236 240 243 246 248 251 255 255 254 253 253 253 254 253 250 244 245 248 252 253 254 250 248 248 248
259 250 246 246 246 244 238 239 243 245 241 235 231 231 231 228 229 232 233 233 234 234 233 235 238 243 244 245 249 250 252 254 254 253 255 255 254 254 254 252 251 253 256 256 256 253 251 249 250
249 244 233 236 240 240 241 240 244 242 235 234 234 234 232 231 230 232 233 233 235 235 235 236 240 243 244 246 249 249 249 249 249 250 254 256 257 256 256 255 255 254 255 256 257 253 251 251 251
247 240 231 232 237 236 239 242 247 245 236 233 233 235 236 235 235 237 236 234 235 239 239 238 239 242 244 248 249 248 248 249 249 251 254 257 259 257 257 258 258 258 256 255 256 253 253 252 252
245 241 238 238 238 235 239 245 245 239 233 232 231 231 232 235 237 237 238 235 234 238 241 241 242 246 248 251 250 253 253 254 253 253 253 256 257 257 257 256 259 259 257 255 255 256 256 255 256
247 244 240 237 237 240 244 247 245 239 232 232 230 229 230 235 237 235 236 239 242 242 243 245 248 249 252 253 252 254 255 255 255 257 258 259 260 261 260 258 259 259 259 257 257 257 257 256 256
253 246 242 239 240 243 242 245 247 241 234 231 231 231 232 238 238 238 239 243 247 247 248 252 251 251 254 254 252 252 254 256 258 260 263 266 267 266 265 261 260 261 261 260 259 258 258 258 256
249 246 245 244 245 247 245 243 244 243 237 232 232 232 238 242 242 245 245 247 250 252 255 259 257 255 254 255 255 254 256 259 263 264 266 268 270 270 269 265 262 261 262 260 259 259 260 261 260
247 247 247 246 249 247 244 240 242 244 240 237 235 235 239 242 244 248 251 252 255 257 261 263 261 257 255 258 260 259 261 263 265 265 267 269 271 273 272 267 266 264 263 262 261 261 261 260 260
246 247 250 251 249 245 243 241 244 244 244 242 242 241 241 243 245 248 253 256 260 264 264 264 263 260 258 259 261 260 263 267 265 266 269 271 271 272 271 271 269 267 265 263 262 262 262 262 262
248 248 254 255 251 248 246 244 244 243 245 246 248 246 247 250 251 252 255 259 263 265 266 266 266 264 263 262 262 263 266 268 269 271 272 272 272 273 272 271 270 268 266 265 264 262 263 263 263
254 250 252 253 252 250 248 245 242 242 245 250 252 252 251 251 252 255 259 263 265 267 268 268 269 268 266 265 264 265 267 268 271 274 275 276 275 274 274 273 272 272 269 266 265 263 263 264 264
257 254 251 251 253 252 249 248 246 244 246 251 254 254 253 251 253 257 261 265 268 269 270 269 269 271 270 269 270 271 271 272 273 275 276 277 278 275 275 275 275 275 272 268 266 264 264 265 266
255 256 254 252 252 251 250 251 254 251 249 252 255 254 253 254 256 259 260 264 269 273 275 273 271 272 273 271 272 273 273 274 274 275 278 281 281 279 278 277 277 276 273 270 267 265 265 265 267
257 257 255 254 256 254 254 253 255 255 253 254 254 255 254 254 257 259 260 263 267 273 277 277 277 277 276 274 273 274 275 275 273 273 279 284 284 283 282 283 281 277 275 271 268 266 264 264 264
258 257 255 256 257 256 256 255 255 257 255 256 256 254 253 254 258 259 261 266 269 273 277 279 280 279 278 277 278 278 279 279 278 279 280 284 286 288 286 285 282 280 278 276 272 267 264 262 262
263 260 257 257 259 261 260 259 260 260 258 257 257 255 253 255 256 260 264 267 269 273 275 278 279 279 279 278 280 283 283 281 280 280 281 284 287 288 287 286 285 284 282 280 276 271 267 263 263
262 261 260 258 260 261 262 263 261 261 260 260 257 255 254 254 255 260 263 266 269 271 273 275 275 277 278 280 280 282 282 282 282 282 282 283 285 287 287 287 287 286 285 283 280 275 270 265 264
262 261 262 262 263 262 263 266 263 263 263 260 257 255 257 258 258 262 264 263 268 271 272 273 273 274 276 278 281 281 282 282 283 282 281 283 285 287 288 288 287 286 287 285 281 276 271 267 267
259 261 265 267 266 267 266 266 266 262 263 260 257 256 258 260 261 263 265 265 269 271 271 271 271 272 274 277 279 282 284 283 281 282 282 284 285 286 286 286 289 288 287 284 281 277 274 270 270
259 261 262 265 268 270 269 268 267 265 266 263 258 257 260 263 266 266 266 267 269 271 271 271 271 271 272 275 278 281 284 281 281 282 284 285 286 286 287 287 288 285 284 283 281 277 277 276 275
257 259 262 265 266 266 266 269 269 269 269 265 260 258 260 263 266 267 268 269 269 270 271 271 270 271 271 273 277 280 282 280 281 283 285 285 285 287 288 290 288 285 284 284 281 280 280 277 274
258 259 260 263 267 268 266 267 268 271 272 270 265 262 262 262 263 265 268 268 268 268 272 273 274 271 270 273 276 279 279 279 280 282 284 285 286 287 287 288 287 286 286 285 284 283 282 279 276
261 261 262 264 267 269 268 267 267 269 270 267 266 265 265 265 263 263 265 267 269 269 270 272 274 274 273 275 277 279 277 278 280 282 284 285 286 287 287 286 286 287 286 285 284 284 282 280 276
263 263 264 264 268 268 268 268 266 267 269 268 266 266 266 265 265 265 268 269 270 270 272 271 273 273 274 275 277 279 278 279 280 281 283 284 285 286 286 285 286 286 285 283 283 282 282 280 277
Height
5865 5865 5866 5867 5868 5868 5867 5867 5867 5867 5867 5867 5867 5868 5868 5869 5870 5872 5870 5869 5869 5869 5869 5869 5869 5870 5870 5870 5870 5870 5870 5870 5871 5871 5871 5872 5872 5872 5872 5872 5872 5873 5873 5872 5872 5872 5873 5873 5873
5864 5864 5866 5866 5866 5866 5866 5866 5866 5866 5866 5866 5866 5867 5867 5867 5868 5868 5868 5868 5868 5868 5868 5868 5869 5869 5869 5869 5869 5869 5869 5870 5870 5870 5870 5871 5871 5871 5871 5871 5872 5872 5872 5871 5871 5871 5871 5871 5872
5863 5863 5865 5865 5864 5865 5865 5864 5865 5865 5865 5865 5865 5866 5866 5866 5867 5867 5867 5867 5867 5867 5868 5868 5868 5868 5869 5869 5868 5868 5868 5869 5869 5869 5869 5870 5870 5870 5870 5870 5870 5870 5870 5870 5870 5870 5869 5870 5871
5862 5863 5864 5864 5863 5863 5863 5863 5863 5863 5864 5864 5864 5865 5865 5865 5865 5866 5866 5866 5866 5867 5867 5867 5867 5868 5868 5868 5868 5868 5867 5868 5868 5868 5868 5869 5869 5869 5869 5869 5869 5869 5869 5869 5869 5869 5869 5869 5870
5861 5862 5862 5861 5861 5861 5862 5862 5862 5862 5862 5863 5863 5863 5863 5864 5864 5864 5864 5865 5865 5865 5866 5866 5866 5867 5867 5867 5867 5867 5867 5867 5867 5867 5867 5868 5868 5867 5867 5867 5867 5867 5867 5867 5868 5868 5868 5869 5869
5860 5860 5861 5860 5860 5860 5860 5860 5861 5861 5861 5861 5862 5862 5862 5862 5862 5863 5863 5863 5864 5864 5864 5865 5865 5865 5865 5866 5866 5866 5866 5866 5866 5866 5866 5866 5866 5866 5866 5866 5866 5866 5866 5866 5866 5866 5866 5867 5867
5859 5859 5859 5859 5859 5859 5859 5859 5859 5860 5860 5860 5860 5861 5861 5861 5861 5861 5861 5862 5862 5863 5863 5863 5864 5864 5864 5864 5864 5864 5864 5865 5865 5865 5865 5865 5865 5865 5864 5864 5865 5864 5864 5864 5864 5864 5864 5865 5865
5857 5858 5858 5858 5858 5858 5858 5858 5858 5858 5858 5859 5859 5859 5860 5860 5860 5860 5860 5860 5861 5861 5861 5862 5862 5862 5862 5862 5862 5862 5863 5863 5863 5863 5863 5863 5863 5863 5863 5863 5863 5862 5862 5862 5862 5862 5862 5863 5863
5856 5858 5857 5857 5857 5857 5856 5857 5857 5857 5857 5857 5857 5858 5858 5858 5858 5858 5859 5859 5859 5859 5860 5860 5860 5860 5860 5860 5861 5861 5861 5861 5861 5861 5861 5861 5861 5861 5861 5861 5860 5860 5860 5860 5860 5860 5860 5860 5861
5855 5856 5856 5856 5856 5856 5855 5855 5855 5855 5856 5856 5856 5856 5856 5857 5857 5857 5857 5857 5858 5858 5858 5858 5859 5859 5859 5859 5859 5859 5859 5859 5859 5859 5859 5859 5859 5859 5858 5858 5858 5858 5858 5858 5858 5858 5858 5858 5858
5853 5854 5854 5854 5854 5854 5854 5854 5854 5854 5854 5855 5855 5855 5855 5855 5855 5855 5856 5856 5856 5856 5857 5857 5857 5857 5857 5857 5857 5857 5857 5857 5857 5857 5857 5857 5856 5856 5856 5856 5856 5855 5855 5855 5855 5855 5855 5855 5855
5851 5852 5852 5852 5852 5853 5853 5853 5853 5853 5853 5853 5853 5854 5854 5854 5854 5854 5854 5855 5855 5855 5855 5855 5855 5855 5855 5855 5855 5855 5855 5855 5855 5854 5854 5854 5854 5853 5853 5853 5853 5853 5853 5852 5852 5852 5852 5852 5852
5849 5850 5850 5850 5851 5851 5851 5851 5851 5851 5852 5852 5852 5852 5853 5853 5853 5853 5853 5853 5853 5853 5853 5853 5853 5853 5853 5852 5852 5852 5852 5852 5852 5852 5852 5851 5851 5850 5850 5850 5850 5849 5849 5849 5849 5849 5849 5849 5849
5847 5848 5848 5848 5849 5849 5849 5850 5850 5850 5850 5851 5851 5851 5851 5851 5851 5852 5852 5852 5852 5851 5851 5851 5851 5850 5850 5850 5850 5850 5849 5849 5849 5849 5848 5848 5848 5847 5847 5846 5846 5846 5846 5846 5846 5846 5846 5846 5846
5845 5846 5846 5846 5847 5847 5848 5848 5849 5848 5849 5849 5849 5850 5850 5850 5850 5850 5850 5850 5850 5849 5849 5849 5848 5848 5848 5847 5847 5847 5846 5846 5846 5846 5845 5845 5844 5844 5843 5843 5842 5842 5842 5842 5842 5842 5842 5842 5842
5843 5844 5844 5844 5844 5845 5847 5847 5847 5847 5847 5847 5847 5848 5848 5848 5848 5848 5848 5848 5848 5847 5847 5846 5846 5846 5845 5845 5844 5844 5844 5843 5843 5842 5842 5841 5841 5840 5840 5839 5838 5838 5838 5838 5838 5838 5838 5838 5838
5841 5842 5842 5843 5842 5843 5844 5844 5844 5844 5844 5845 5845 5846 5846 5846 5846 5846 5846 5846 5845 5845 5844 5844 5844 5843 5843 5842 5842 5841 5841 5840 5840 5839 5838 5838 5837 5836 5836 5835 5835 5834 5834 5833 5833 5834 5834 5834 5834
5839 5839 5839 5840 5840 5840 5841 5841 5841 5842 5842 5842 5843 5843 5844 5844 5844 5844 5844 5843 5843 5842 5842 5842 5841 5841 5840 5839 5839 5838 5838 5837 5836 5836 5835 5834 5834 5833 5832 5831 5831 5830 5829 5829 5829 5829 5829 5830 5830
5836 5837 5837 5837 5837 5838 5838 5838 5839 5839 5839 5840 5840 5840 5841 5841 5841 5841 5841 5841 5840 5840 5840 5839 5838 5838 5837 5836 5836 5835 5835 5834 5833 5833 5832 5831 5830 5829 5828 5827 5827 5826 5825 5824 5824 5825 5825 5825 5825
5834 5834 5834 5834 5834 5835 5835 5836 5836 5836 5836 5836 5837 5837 5838 5838 5838 5838 5838 5838 5838 5837 5837 5836 5836 5835 5834 5833 5833 5832 5831 5831 5830 5829 5829 5827 5826 5825 5824 5823 5823 5821 5821 5820 5820 5820 5820 5820 5820
5831 5831 5831 5832 5832 5832 5833 5833 5833 5833 5833 5833 5833 5834 5834 5835 5835 5835 5835 5835 5835 5835 5834 5834 5833 5832 5831 5830 5830 5829 5829 5828 5827 5826 5825 5824 5823 5822 5821 5820 5819 5817 5816 5816 5815 5815 5815 5815 5816
5828 5828 5828 5829 5829 5829 5830 5830 5830 5830 5830 5830 5830 5830 5831 5831 5832 5832 5832 5832 5832 5832 5831 5830 5830 5829 5828 5828 5827 5826 5825 5825 5824 5823 5822 5821 5819 5818 5817 5816 5815 5813 5812 5811 5810 5809 5810 5810 5811
5825 5825 5825 5825 5826 5826 5827 5827 5828 5826 5826 5826 5826 5827 5827 5828 5828 5829 5829 5829 5829 5828 5828 5827 5827 5826 5825 5825 5824 5823 5822 5821 5820 5819 5818 5817 5816 5815 5814 5812 5811 5810 5808 5807 5805 5805 5805 5805 5806
5821 5822 5822 5822 5823 5824 5824 5824 5824 5823 5823 5822 5823 5823 5823 5824 5825 5825 5825 5825 5825 5825 5824 5824 5823 5823 5822 5821 5821 5820 5819 5818 5817 5816 5815 5814 5813 5811 5810 5809 5807 5806 5804 5803 5802 5801 5801 5801 5801
5818 5819 5820 5819 5820 5820 5820 5820 5821 5820 5819 5819 5819 5819 5820 5820 5821 5821 5821 5821 5821 5821 5820 5820 5820 5819 5818 5818 5817 5816 5815 5814 5813 5812 5811 5810 5809 5808 5806 5805 5804 5802 5801 5799 5798 5797 5797 5796 5796
5815 5816 5817 5817 5817 5817 5816 5816 5818 5816 5816 5815 5815 5816 5816 5816 5817 5817 5817 5817 5817 5817 5816 5816 5816 5815 5815 5814 5813 5813 5812 5811 5810 5808 5807 5806 5805 5804 5802 5801 5800 5798 5797 5795 5794 5793 5793 5792 5792
5811 5812 5813 5813 5813 5813 5813 5814 5813 5812 5812 5811 5811 5812 5812 5812 5813 5813 5813 5813 5813 5813 5812 5812 5811 5811 5810 5810 5809 5809 5807 5806 5805 5804 5803 5802 5801 5800 5798 5797 5795 5794 5793 5791 5790 5789 5788 5787 5787
5808 5808 5808 5808 5808 5809 5809 5809 5810 5808 5808 5808 5807 5807 5808 5808 5808 5808 5808 5808 5808 5808 5808 5807 5807 5806 5806 5805 5805 5804 5803 5802 5801 5800 5799 5797 5796 5795 5794 5792 5791 5789 5788 5787 5786 5785 5784 5783 5782
5803 5803 5803 5804 5804 5804 5805 5807 5805 5804 5804 5803 5803 5803 5803 5803 5804 5804 5804 5804 5803 5803 5803 5803 5802 5801 5801 5801 5800 5799 5798 5797 5796 5795 5794 5793 5792 5790 5789 5788 5786 5785 5783 5782 5781 5780 5779 5777 5777
5797 5798 5799 5799 5799 5799 5799 5803 5800 5800 5799 5799 5798 5798 5798 5799 5799 5799 5799 5799 5798 5798 5798 5797 5797 5796 5796 5795 5795 5794 5793 5792 5791 5790 5789 5788 5787 5785 5784 5782 5781 5780 5778 5777 5775 5774 5773 5772 5771